Hourly Weather Rusachki

Today, 22 April, Thursday

Time Temperature Precipitation Wind Pressure Humidity
00:00 +8°C° 0 mm 1 mps 742 mmHg 76%
01:00 +7°C° 0 mm 2 mps 741 mmHg 77%
02:00 +7°C° 0 mm 2 mps 741 mmHg 79%
03:00 +6°C° 0.1 mm 2 mps 741 mmHg 83%
04:00 +6°C° 0.1 mm 2 mps 741 mmHg 87%
05:00 +5°C° 0.1 mm 2 mps 741 mmHg 91%
06:00 +5°C° 0 mm 3 mps 742 mmHg 88%
07:00 +5°C° 0 mm 3 mps 742 mmHg 84%
08:00 +6°C° 0 mm 4 mps 742 mmHg 81%
09:00 +5°C° 0.1 mm 4 mps 743 mmHg 82%
10:00 +5°C° 0.1 mm 4 mps 743 mmHg 84%
11:00 +4°C° 0.1 mm 4 mps 743 mmHg 85%
12:00 +6°C° 0 mm 5 mps 743 mmHg 71%
13:00 +7°C° 0 mm 6 mps 743 mmHg 58%
14:00 +9°C° 0 mm 7 mps 743 mmHg 44%
15:00 +9°C° 0 mm 6 mps 743 mmHg 47%
16:00 +8°C° 0 mm 6 mps 743 mmHg 49%
17:00 +8°C° 0 mm 6 mps 743 mmHg 51%
18:00 +6°C° 0.1 mm 5 mps 743 mmHg 58%
19:00 +5°C° 0.1 mm 4 mps 744 mmHg 65%
20:00 +4°C° 0.1 mm 4 mps 744 mmHg 71%
21:00 +3°C° 0 mm 4 mps 744 mmHg 75%
22:00 +2°C° 0 mm 3 mps 744 mmHg 80%
23:00 +1°C° 0 mm 3 mps 744 mmHg 84%

Tomorrow, 23 April, Friday

Time Temperature Precipitation Wind Pressure Humidity
00:00 0°C° 0 mm 4 mps 744 mmHg 82%
01:00 0°C° 0 mm 4 mps 744 mmHg 81%
02:00 0°C° 0 mm 5 mps 744 mmHg 80%
03:00 -1°C° 0 mm 5 mps 744 mmHg 81%
04:00 -1°C° 0 mm 5 mps 744 mmHg 83%
05:00 -1°C° 0 mm 5 mps 744 mmHg 85%
06:00 -1°C° 0 mm 5 mps 745 mmHg 83%
07:00 0°C° 0 mm 5 mps 745 mmHg 81%
08:00 +1°C° 0 mm 6 mps 745 mmHg 79%
09:00 +1°C° 0.2 mm 6 mps 745 mmHg 78%
10:00 +2°C° 0.2 mm 6 mps 746 mmHg 77%
11:00 +2°C° 0.2 mm 6 mps 746 mmHg 75%
12:00 +3°C° 0.2 mm 6 mps 746 mmHg 66%
13:00 +4°C° 0.2 mm 6 mps 746 mmHg 57%
14:00 +5°C° 0.2 mm 7 mps 746 mmHg 47%
15:00 +5°C° 0.1 mm 6 mps 746 mmHg 48%
16:00 +5°C° 0.1 mm 6 mps 746 mmHg 49%
17:00 +5°C° 0.1 mm 5 mps 746 mmHg 50%
18:00 +4°C° 0.1 mm 4 mps 746 mmHg 56%
19:00 +3°C° 0.1 mm 4 mps 746 mmHg 61%
20:00 +2°C° 0.1 mm 3 mps 746 mmHg 67%
21:00 +1°C° 0 mm 3 mps 746 mmHg 69%
22:00 0°C° 0 mm 4 mps 747 mmHg 71%
23:00 -1°C° 0 mm 4 mps 747 mmHg 73%

Day after tomorrow, 24 April, Saturday

Time Temperature Precipitation Wind Pressure Humidity
00:00 -2°C° 0 mm 4 mps 747 mmHg 78%
01:00 -2°C° 0 mm 4 mps 747 mmHg 84%
02:00 -3°C° 0 mm 4 mps 747 mmHg 89%
03:00 -3°C° 0 mm 4 mps 747 mmHg 88%
04:00 -3°C° 0 mm 4 mps 747 mmHg 87%
05:00 -3°C° 0 mm 4 mps 747 mmHg 85%
06:00 -1°C° 0 mm 5 mps 747 mmHg 77%
07:00 -1°C° 0 mm 6 mps 747 mmHg 68%
08:00 +2°C° 0 mm 6 mps 748 mmHg 59%
09:00 +3°C° 0 mm 6 mps 748 mmHg 53%
10:00 +3°C° 0 mm 6 mps 748 mmHg 47%
11:00 +4°C° 0 mm 6 mps 748 mmHg 41%
12:00 +5°C° 0 mm 7 mps 747 mmHg 41%
13:00 +5°C° 0 mm 7 mps 747 mmHg 40%
14:00 +5°C° 0 mm 7 mps 747 mmHg 39%
15:00 +5°C° 0.1 mm 7 mps 747 mmHg 43%
16:00 +4°C° 0.1 mm 7 mps 748 mmHg 47%
17:00 +4°C° 0.1 mm 7 mps 748 mmHg 52%
18:00 +2°C° 0 mm 6 mps 748 mmHg 55%
19:00 +1°C° 0 mm 5 mps 748 mmHg 58%
20:00 0°C° 0 mm 4 mps 748 mmHg 62%
21:00 -1°C° 0 mm 4 mps 748 mmHg 65%
22:00 -2°C° 0 mm 4 mps 748 mmHg 68%
23:00 -3°C° 0 mm 4 mps 748 mmHg 71%

25 April, Sunday

Time Temperature Precipitation Wind Pressure Humidity
00:00 -3°C° 0 mm 4 mps 748 mmHg 73%
01:00 -2°C° 0 mm 5 mps 748 mmHg 75%
02:00 -2°C° 0 mm 5 mps 748 mmHg 76%
03:00 -2°C° 0 mm 5 mps 748 mmHg 80%
04:00 -4°C° 0 mm 5 mps 748 mmHg 83%
05:00 -4°C° 0 mm 5 mps 748 mmHg 87%
06:00 -2°C° 0 mm 5 mps 748 mmHg 78%
07:00 -2°C° 0 mm 6 mps 748 mmHg 70%
08:00 -1°C° 0 mm 6 mps 748 mmHg 61%
09:00 +1°C° 0 mm 6 mps 748 mmHg 57%
10:00 +2°C° 0 mm 6 mps 748 mmHg 52%
11:00 +3°C° 0 mm 6 mps 748 mmHg 48%
12:00 +4°C° 0.3 mm 7 mps 748 mmHg 49%
13:00 +4°C° 0.3 mm 7 mps 748 mmHg 51%
14:00 +4°C° 0.3 mm 7 mps 748 mmHg 52%
15:00 +4°C° 0.3 mm 6 mps 748 mmHg 55%
16:00 +4°C° 0.3 mm 6 mps 748 mmHg 58%
17:00 +3°C° 0.3 mm 6 mps 748 mmHg 60%
18:00 +2°C° 0.1 mm 5 mps 748 mmHg 65%
19:00 +1°C° 0.1 mm 4 mps 748 mmHg 69%
20:00 0°C° 0.1 mm 3 mps 748 mmHg 73%
21:00 0°C° 0 mm 3 mps 748 mmHg 76%
22:00 -1°C° 0 mm 3 mps 748 mmHg 78%
23:00 -2°C° 0 mm 4 mps 748 mmHg 80%

26 April, Monday

Time Temperature Precipitation Wind Pressure Humidity
00:00 -2°C° 0 mm 3 mps 748 mmHg 83%
01:00 -4°C° 0 mm 3 mps 748 mmHg 86%
02:00 -4°C° 0 mm 3 mps 748 mmHg 89%
03:00 -4°C° 0 mm 3 mps 748 mmHg 90%
04:00 -4°C° 0 mm 3 mps 748 mmHg 90%
05:00 -4°C° 0 mm 3 mps 748 mmHg 91%
06:00 -3°C° 0 mm 4 mps 748 mmHg 83%
07:00 -1°C° 0 mm 4 mps 748 mmHg 75%
08:00 0°C° 0 mm 4 mps 748 mmHg 68%
09:00 +1°C° 0.1 mm 5 mps 748 mmHg 60%
10:00 +2°C° 0.1 mm 5 mps 748 mmHg 53%
11:00 +5°C° 0.1 mm 5 mps 748 mmHg 45%
12:00 +5°C° 0 mm 5 mps 747 mmHg 44%
13:00 +5°C° 0 mm 6 mps 747 mmHg 42%
14:00 +5°C° 0 mm 6 mps 747 mmHg 40%
15:00 +6°C° 0.1 mm 5 mps 747 mmHg 48%
16:00 +5°C° 0.1 mm 5 mps 747 mmHg 56%
17:00 +5°C° 0.1 mm 4 mps 747 mmHg 65%
18:00 +3°C° 0.1 mm 4 mps 747 mmHg 70%
19:00 +2°C° 0.1 mm 3 mps 747 mmHg 75%
20:00 +2°C° 0.1 mm 2 mps 747 mmHg 80%
21:00 +1°C° 0 mm 2 mps 747 mmHg 83%
22:00 +1°C° 0 mm 2 mps 747 mmHg 86%
23:00 -1°C° 0 mm 2 mps 747 mmHg 88%

27 April, Tuesday

Time Temperature Precipitation Wind Pressure Humidity
00:00 -2°C° 0 mm 2 mps 747 mmHg 89%
01:00 -2°C° 0 mm 2 mps 747 mmHg 90%
02:00 -2°C° 0 mm 2 mps 747 mmHg 91%
03:00 -2°C° 0 mm 2 mps 747 mmHg 92%
04:00 -3°C° 0 mm 2 mps 747 mmHg 92%
05:00 -3°C° 0 mm 2 mps 747 mmHg 92%
06:00 -1°C° 0 mm 2 mps 747 mmHg 84%
07:00 +3°C° 0 mm 1 mps 747 mmHg 77%
08:00 +4°C° 0 mm 1 mps 747 mmHg 69%
09:00 +5°C° 0 mm 2 mps 747 mmHg 63%
10:00 +6°C° 0 mm 2 mps 746 mmHg 56%
11:00 +8°C° 0 mm 2 mps 746 mmHg 49%
12:00 +8°C° 0 mm 2 mps 746 mmHg 48%
13:00 +9°C° 0 mm 2 mps 745 mmHg 47%
14:00 +9°C° 0 mm 2 mps 745 mmHg 46%
15:00 +9°C° 0 mm 2 mps 744 mmHg 47%
16:00 +10°C° 0 mm 2 mps 744 mmHg 47%
17:00 +11°C° 0 mm 1 mps 743 mmHg 48%
18:00 +9°C° 0 mm 2 mps 743 mmHg 54%
19:00 +7°C° 0 mm 2 mps 743 mmHg 60%
20:00 +6°C° 0 mm 2 mps 742 mmHg 67%
21:00 +4°C° 0 mm 3 mps 742 mmHg 69%
22:00 +4°C° 0 mm 3 mps 741 mmHg 71%
23:00 +3°C° 0 mm 3 mps 741 mmHg 73%
Show more